Weather in Koriukivka

Ukraine / Chernihiv Region     51°46′21″N   32°16′23″E
temp.,
°C
wind,
m/s
gust,
m/s
humid.,
%
clouds,
%
prec.,
mm/h
press.,
hPa
HPBL,
m
20 april, tue
tue2000:00+6ne499379 0.1 1015355
03:00+5ne358956 0.1 1014141
06:00+5ne479571 0.0 1013249
09:00+8ne468296 0.1 1012648
12:00+11ne556786 0.3 10101035
15:00+9ne567883 1.1 1009767
18:00+7n5890100 0.1 1008479
21:00+7nnw4697100 5.7 1007315
21 april, wed
wed2100:00+6nw4697100 6.1 1007376
03:00+6nnw2496100 7.1 1006333
06:00+5nnw3495100 2.4 1007749
09:00+5wnw3693100 3.3 1009727
12:00+6w4686100 0.2 1010773
15:00+7w4683100 0.6 1011852
18:00+8w247324 0.1 1012649
21:00+5sse22866 0.1 101321
22 april, thu
thu2200:00+4ssw36945 0.0 101499
03:00+3s339377 0.0 101452
06:00+3s34935 0.0 101550
09:00+8s458492 0.0 1015373
12:00+12s467262 0.0 1016887
15:00+15sw67586 0.9 10151416
18:00+14sw576875 1.4 1015793
21:00+10s358692 1.7 101576
23 april, fri
fri2300:00+8s499087 0.6 1015163
03:00+7s4109249 0.6 1015201
06:00+7ssw349486 0.1 101588
09:00+11s587967 0.1 1014553
12:00+15ssw8116499 0.1 10131594
15:00+7nw7786100 1.4 1015615
18:00+4nw6995100 0.1 1016530
21:00+4wnw3489100 0.4 1017478
24 april, sat
sat2400:00+4sw3792100 0.0 1016348
03:00+3sw489650 0.0 1014298
06:00+1wsw38935 0.0 1014226
09:00+3w4698100 1.0 1014347
12:00+3wnw71091100 1.3 1015793
15:00+6wnw7115499 2.1 10151981
18:00+6wnw8115979 0.4 10161587
21:00+2wsw4107652 0.4 1017207